Location: Luxembourg
(49.6117°N, 6.1300°E)
Time: 10:21:36
(UTC+02:00)

ISS - Pass Details

Date: 26 January 2019
Orbit: 411 x 421 km, 51.6° (Epoch: 18 October)

Event Time Altitude Azimuth Distance (km) Brightness Sun altitude
Rises 19:15:14 0° 251° (WSW) 2,411 1.7 -18.4°
Reaches altitude 10° 19:17:21 10° 251° (WSW) 1,547 0.3 -18.8°
Maximum altitude 19:20:50 90° 5° (N) 444 -3.8 -19.3°
Enters shadow 19:21:09 72° 71° (ENE) 465 -3.8 -19.4°
